This is the latest recevied weather packets stored in our database for station/object N7CEE. If no packets are shown the sender has not sent any weather packets the latest 10 day(s).
| Time | Temp. | Humidity | Pressure | Rain* | Wind** | Luminosity | Snow |
|---|---|---|---|---|---|---|---|
| 1777626742 | 6.67° C | 34% | 1020.8 hPa | 0 mm | - | 0 W/m² | - |
| 1777626438 | 6.11° C | 33% | 1020.7 hPa | 0 mm | - | 0 W/m² | - |
| 1777626137 | 6.11° C | 34% | 1021 hPa | 0 mm | - | 0 W/m² | - |
| 1777625837 | 6.67° C | 32% | 1020.8 hPa | 0 mm | - | 0 W/m² | - |
| 1777625533 | 6.67° C | 33% | 1020.8 hPa | 0 mm | - | 0 W/m² | - |
| 1777625229 | 7.22° C | 33% | 1020.8 hPa | 0 mm | - | 0 W/m² | - |
| 1777624925 | 7.78° C | 31% | 1020.9 hPa | 0 mm | - | 0 W/m² | - |
| 1777624622 | 8.33° C | 29% | 1020.9 hPa | 0 mm | - | 0 W/m² | - |
| 1777624322 | 9.44° C | 29% | 1021.1 hPa | 0 mm | - | 0 W/m² | - |
| 1777624020 | 8.89° C | 26% | 1020.8 hPa | 0 mm | - | 0 W/m² | - |
| 1777623718 | 8.89° C | 28% | 1021 hPa | 0 mm | - | 0 W/m² | - |
| 1777623414 | 8.89° C | 27% | 1021 hPa | 0 mm | - | 0 W/m² | - |
| 1777623111 | 8.89° C | 28% | 1021 hPa | 0 mm | - | 0 W/m² | - |
| 1777622808 | 8.89° C | 28% | 1021.1 hPa | 0 mm | - | 0 W/m² | - |
| 1777622505 | 10° C | 28% | 1021.1 hPa | 0 mm | - | 0 W/m² | - |
| 1777622201 | 10° C | 25% | 1021.3 hPa | 0 mm | - | 0 W/m² | - |
| 1777621898 | 9.44° C | 27% | 1021 hPa | 0 mm | - | 0 W/m² | - |
| 1777621593 | 9.44° C | 27% | 1021.1 hPa | 0 mm | - | 0 W/m² | - |
| 1777621290 | 9.44° C | 27% | 1021.1 hPa | 0 mm | - | 0 W/m² | - |
| 1777620986 | 9.44° C | 28% | 1021 hPa | 0 mm | - | 0 W/m² | - |
| 1777620682 | 9.44° C | 27% | 1021 hPa | 0 mm | - | 0 W/m² | - |
| 1777620378 | 9.44° C | 26% | 1020.9 hPa | 0 mm | - | 0 W/m² | - |
| 1777620076 | 10° C | 27% | 1020.9 hPa | 0 mm | - | 0 W/m² | - |
| 1777619772 | 10° C | 27% | 1020.8 hPa | 0 mm | - | 0 W/m² | - |
| 1777619466 | 10° C | 27% | 1020.9 hPa | 0 mm | - | 0 W/m² | - |
* Rain latest hour (hover to see other rain measurements)
** Current wind speed in m/s (hover to see current wind gust speed)